Swainsboro, GA

7:15 AM EST on February 11, 2016 (GMT -0500)
Emanuel County

Weather History for KSBO - November, 2012

Change the Weather History Date:

Wednesday, November 14, 2012

  Actual Average Record
Temperature  
Mean Temperature 52 °F -  
Max Temperature 53 °F 68 °F 64 °F (2015)
Min Temperature 50 °F 41 °F 26 °F (2013)
Degree Days  
Heating Degree Days 14    
Growing Degree Days 2 (Base 50)    
Moisture  
Dew Point 45 °F    
Average Humidity 81    
Maximum Humidity 100    
Minimum Humidity 71    
Precipitation  
Precipitation 0.00 in - - ()
Sea Level Pressure  
Sea Level Pressure 30.30 in    
Wind  
Wind Speed 6 mph ()    
Max Wind Speed 12 mph    
Max Gust Speed 16 mph    
Visibility 9.9 miles    
Events Rain , Thunderstorm    
Averages and records for this station are not official NWS values.
T = Trace of Precipitation, MM = Missing Value Source: Averaged Metar Reports

Daily Weather History Graph

Daily Weather History Graph

Search for Another Location

Airport or City:

Trip Planner

Search our weather history database for the weather conditions in past years. The results will help you decide how hot, cold, wet, or windy it might be!

Date:

Astronomy

Nov. 14, 2012 Rise Set
Actual Time 6:58 AM EST 5:28 PM EST
Civil Twilight 6:32 AM EST 5:54 PM EST
Nautical Twilight 6:03 AM EST 6:24 PM EST
Astronomical Twilight 5:33 AM EST 6:53 PM EST
Moon 7:43 AM EST (11/14) 6:19 PM EST (11/14)
Length of Visible Light 11h 22m
Length of Day
10h 29m
New Moon, 1% of the Moon is Illuminated
Nov 14
New Moon
Nov 20
First Quarter
Nov 28
Full
Dec 6
Last Quarter
Dec 13
New

Hourly Weather History & Observations

Time (EST) Temp. Dew Point Humidity Pressure Visibility Wind Dir Wind Speed Gust Speed Precip Events Conditions
12:15 AM 51.8 °F 46.4 °F 82% 30.29 in 10.0 mi ENE 9.2 mph - N/A   Overcast
12:35 AM 51.8 °F 46.4 °F 82% 30.28 in 10.0 mi ENE 5.8 mph - N/A   Overcast
12:55 AM 51.8 °F 46.4 °F 82% 30.28 in 10.0 mi ENE 6.9 mph - N/A   Overcast
1:15 AM 51.8 °F 46.4 °F 82% 30.28 in 10.0 mi ENE 9.2 mph - N/A   Overcast
1:35 AM 51.8 °F 46.4 °F 82% 30.28 in 10.0 mi ENE 6.9 mph - N/A   Overcast
1:55 AM 51.8 °F 46.4 °F 82% 30.27 in 10.0 mi ENE 5.8 mph - N/A   Overcast
2:15 AM 51.8 °F 46.4 °F 82% 30.27 in 10.0 mi ENE 6.9 mph - N/A   Overcast
2:35 AM 50.0 °F 46.4 °F 87% 30.27 in 10.0 mi East 5.8 mph - N/A   Overcast
2:55 AM 50.0 °F 46.4 °F 87% 30.28 in 10.0 mi ENE 6.9 mph - N/A   Overcast
3:15 AM 50.0 °F 46.4 °F 87% 30.29 in 10.0 mi ENE 5.8 mph - N/A   Overcast
3:35 AM 50.0 °F 48.2 °F 94% 30.29 in 7.0 mi NE 5.8 mph - N/A   Overcast
3:55 AM 50.0 °F 50.0 °F 100% 30.29 in 7.0 mi NE 5.8 mph - N/A   Overcast
4:15 AM 50.0 °F 50.0 °F 100% 30.29 in 7.0 mi NE 3.5 mph - N/A   Overcast
4:35 AM 50.0 °F 50.0 °F 100% 30.29 in 10.0 mi NE 4.6 mph - N/A   Overcast
4:55 AM 50.0 °F 50.0 °F 100% 30.29 in 10.0 mi NE 5.8 mph - N/A   Overcast
5:15 AM 50.0 °F 50.0 °F 100% 30.29 in 10.0 mi ENE 5.8 mph - N/A   Overcast
5:35 AM 50.0 °F 50.0 °F 100% 30.30 in 10.0 mi ENE 4.6 mph - N/A   Overcast
5:55 AM 50.0 °F 50.0 °F 100% 30.30 in 10.0 mi ENE 4.6 mph - N/A   Overcast
6:15 AM 50.0 °F 50.0 °F 100% 30.30 in 10.0 mi ENE 9.2 mph - N/A   Overcast
6:35 AM 50.0 °F 50.0 °F 100% 30.30 in 10.0 mi East 10.4 mph - N/A   Overcast
6:55 AM 50.0 °F 48.2 °F 94% 30.31 in 10.0 mi ENE 8.1 mph 16.1 mph N/A   Overcast
7:15 AM 50.0 °F 46.4 °F 87% 30.32 in 10.0 mi East 5.8 mph - N/A   Overcast
7:35 AM 50.0 °F 46.4 °F 87% 30.32 in 10.0 mi ENE 4.6 mph - N/A   Overcast
7:55 AM 50.0 °F 46.4 °F 87% 30.33 in 10.0 mi NE 5.8 mph - N/A   Overcast
8:15 AM 50.0 °F 44.6 °F 82% 30.34 in 10.0 mi East 8.1 mph - N/A   Overcast
8:35 AM 51.8 °F 44.6 °F 76% 30.34 in 10.0 mi ENE 8.1 mph - N/A   Overcast
8:55 AM 51.8 °F 44.6 °F 76% 30.36 in 10.0 mi ENE 4.6 mph 16.1 mph N/A   Overcast
9:15 AM 51.8 °F 46.4 °F 82% 30.36 in 10.0 mi NNE 6.9 mph - N/A   Overcast
9:35 AM 51.8 °F 44.6 °F 76% 30.36 in 10.0 mi ENE 8.1 mph - N/A   Overcast
9:55 AM 51.8 °F 44.6 °F 76% 30.36 in 10.0 mi ENE 8.1 mph - N/A   Overcast
10:15 AM 51.8 °F 44.6 °F 76% 30.36 in 10.0 mi NE 5.8 mph - N/A   Overcast
10:35 AM 51.8 °F 44.6 °F 76% 30.37 in 10.0 mi NE 4.6 mph - N/A   Overcast
10:55 AM 51.8 °F 44.6 °F 76% 30.37 in 10.0 mi ENE 5.8 mph - N/A   Overcast
11:15 AM 51.8 °F 44.6 °F 76% 30.36 in 10.0 mi NE 9.2 mph - N/A   Overcast
11:35 AM 51.8 °F 44.6 °F 76% 30.34 in 10.0 mi NE 11.5 mph - N/A   Overcast
11:55 AM 51.8 °F 42.8 °F 71% 30.34 in 10.0 mi ENE 6.9 mph - N/A   Overcast
12:15 PM 51.8 °F 44.6 °F 76% 30.33 in 10.0 mi ENE 8.1 mph - N/A   Overcast
12:35 PM 51.8 °F 44.6 °F 76% 30.32 in 10.0 mi ENE 9.2 mph - N/A   Overcast
12:55 PM 53.6 °F 44.6 °F 72% 30.32 in 10.0 mi NNE 3.5 mph - N/A   Overcast
1:15 PM 51.8 °F 44.6 °F 76% 30.30 in 10.0 mi NE 9.2 mph - N/A   Overcast
1:35 PM 51.8 °F 44.6 °F 76% 30.30 in 10.0 mi East 10.4 mph - N/A   Overcast
1:55 PM 51.8 °F 44.6 °F 76% 30.30 in 10.0 mi NE 8.1 mph - N/A   Overcast
2:15 PM 51.8 °F 44.6 °F 76% 30.30 in 10.0 mi ENE 3.5 mph - N/A   Overcast
2:35 PM 51.8 °F 44.6 °F 76% 30.29 in 10.0 mi NE 5.8 mph - N/A   Overcast
2:55 PM 51.8 °F 44.6 °F 76% 30.28 in 10.0 mi ENE 5.8 mph - N/A   Overcast
3:15 PM 51.8 °F 44.6 °F 76% 30.28 in 10.0 mi NE 3.5 mph - N/A   Overcast
3:35 PM 51.8 °F 44.6 °F 76% 30.27 in 10.0 mi ENE 6.9 mph - N/A   Overcast
3:55 PM 51.8 °F 44.6 °F 76% 30.27 in 10.0 mi NNE 5.8 mph - N/A   Overcast
4:15 PM 51.8 °F 44.6 °F 76% 30.27 in 10.0 mi East 6.9 mph - N/A   Overcast
4:35 PM 51.8 °F 44.6 °F 76% 30.27 in 10.0 mi ENE 4.6 mph - N/A   Overcast
4:55 PM 51.8 °F 44.6 °F 76% 30.28 in 10.0 mi ENE 5.8 mph - N/A   Overcast
5:15 PM 51.8 °F 44.6 °F 76% 30.28 in 10.0 mi NE 3.5 mph - N/A   Overcast
5:35 PM 51.8 °F 44.6 °F 76% 30.28 in 10.0 mi NE 4.6 mph - N/A   Overcast
5:55 PM 51.8 °F 44.6 °F 76% 30.28 in 10.0 mi NE 5.8 mph - N/A   Overcast
6:15 PM 51.8 °F 44.6 °F 76% 30.28 in 10.0 mi East 5.8 mph - N/A   Overcast
6:35 PM 51.8 °F 44.6 °F 76% 30.29 in 10.0 mi ENE 4.6 mph - N/A   Overcast
6:55 PM 51.8 °F 44.6 °F 76% 30.29 in 10.0 mi ENE 5.8 mph - N/A   Overcast
7:15 PM 50.0 °F 42.8 °F 76% 30.29 in 10.0 mi ENE 6.9 mph - N/A   Overcast
7:35 PM 50.0 °F 42.8 °F 76% 30.29 in 10.0 mi East 4.6 mph - N/A   Overcast
7:55 PM 50.0 °F 42.8 °F 76% 30.29 in 10.0 mi ENE 9.2 mph - N/A   Overcast
8:15 PM 50.0 °F 42.8 °F 76% 30.29 in 10.0 mi ENE 6.9 mph - N/A   Overcast
8:35 PM 50.0 °F 42.8 °F 76% 30.29 in 10.0 mi ENE 9.2 mph - N/A   Overcast
8:55 PM 50.0 °F 42.8 °F 76% 30.29 in 10.0 mi ENE 6.9 mph 16.1 mph N/A   Overcast
9:35 PM 50.0 °F 42.8 °F 76% 30.28 in 10.0 mi East 5.8 mph - N/A   Overcast
9:55 PM 50.0 °F 42.8 °F 76% 30.27 in 10.0 mi ENE 5.8 mph - N/A   Overcast
10:15 PM 50.0 °F 42.8 °F 76% 30.27 in 10.0 mi East 9.2 mph - N/A   Overcast
10:35 PM 50.0 °F 42.8 °F 76% 30.26 in 10.0 mi East 8.1 mph - N/A Thunderstorm Overcast
10:55 PM 50.0 °F 42.8 °F 76% 30.26 in 10.0 mi East 6.9 mph - N/A Thunderstorm Overcast
11:15 PM 50.0 °F 42.8 °F 76% 30.26 in 10.0 mi ENE 6.9 mph - N/A Thunderstorm Overcast
11:35 PM 50.0 °F 42.8 °F 76% 30.24 in 10.0 mi East 6.9 mph - N/A Rain , Thunderstorm Light Thunderstorms and Rain
11:55 PM 50.0 °F 42.8 °F 76% 30.23 in 10.0 mi East 6.9 mph - N/A Thunderstorm Overcast